TimeCST,TemperatureF,Dew PointF,Humidity,Sea Level PressureIn,VisibilityMPH,Wind Direction,Wind SpeedMPH,Gust SpeedMPH,PrecipitationIn,Events,Conditions,WindDirDegrees,DateUTC
12:53 AM,35.1,34.0,96,30.34,8.0,Calm,Calm,-,N/A,,Clear,0,2012-11-16 06:53:00
1:53 AM,36.0,34.0,93,30.35,10.0,Calm,Calm,-,N/A,,Clear,0,2012-11-16 07:53:00
2:53 AM,35.1,34.0,96,30.35,10.0,Calm,Calm,-,N/A,,Clear,0,2012-11-16 08:53:00
3:53 AM,33.1,32.0,96,30.35,10.0,Calm,Calm,-,N/A,,Clear,0,2012-11-16 09:53:00
4:53 AM,35.1,33.1,92,30.36,10.0,Calm,Calm,-,N/A,,Clear,0,2012-11-16 10:53:00
5:53 AM,32.0,30.9,96,30.37,9.0,Calm,Calm,-,N/A,,Clear,0,2012-11-16 11:53:00
6:53 AM,32.0,30.9,96,30.39,7.0,Calm,Calm,-,N/A,,Clear,0,2012-11-16 12:53:00
7:53 AM,37.9,34.0,86,30.41,10.0,Calm,Calm,-,N/A,,Clear,0,2012-11-16 13:53:00
8:53 AM,44.1,36.0,73,30.42,10.0,NE,5.8,-,N/A,,Clear,40,2012-11-16 14:53:00
9:53 AM,48.9,36.0,61,30.43,10.0,North,5.8,-,N/A,,Clear,10,2012-11-16 15:53:00
10:53 AM,54.0,28.9,38,30.42,10.0,North,9.2,-,N/A,,Clear,10,2012-11-16 16:53:00
11:53 AM,57.0,28.9,34,30.39,10.0,NNE,4.6,-,N/A,,Clear,30,2012-11-16 17:53:00
12:53 PM,59.0,32.0,36,30.35,10.0,NNE,6.9,-,N/A,,Clear,20,2012-11-16 18:53:00
1:53 PM,61.0,33.1,35,30.34,10.0,NNW,5.8,-,N/A,,Clear,340,2012-11-16 19:53:00
2:53 PM,62.1,30.0,30,30.32,10.0,North,6.9,-,N/A,,Clear,360,2012-11-16 20:53:00
3:53 PM,62.1,28.9,29,30.32,10.0,NNE,5.8,-,N/A,,Clear,20,2012-11-16 21:53:00
4:53 PM,59.0,28.9,32,30.33,10.0,NNE,4.6,-,N/A,,Clear,30,2012-11-16 22:53:00
5:53 PM,54.0,30.9,41,30.34,10.0,NNE,4.6,-,N/A,,Clear,20,2012-11-16 23:53:00
6:53 PM,46.9,37.0,68,30.35,10.0,Calm,Calm,-,N/A,,Clear,0,2012-11-17 00:53:00
7:53 PM,43.0,37.9,82,30.35,10.0,Calm,Calm,-,N/A,,Clear,0,2012-11-17 01:53:00
8:53 PM,42.1,37.0,82,30.37,10.0,Calm,Calm,-,N/A,,Clear,0,2012-11-17 02:53:00
9:53 PM,42.1,35.1,76,30.39,10.0,Calm,Calm,-,N/A,,Clear,0,2012-11-17 03:53:00
10:53 PM,39.9,34.0,79,30.38,10.0,NNE,3.5,-,N/A,,Clear,30,2012-11-17 04:53:00
11:53 PM,39.0,35.1,86,30.38,10.0,Calm,Calm,-,N/A,,Clear,0,2012-11-17 05:53:00